RH
38 39 40 42 42 43 44 45 46 47 49 50 50 52 53 54 56 56 57 57 57 59 61 60 60 60 60 60 60 60 60 60 60 59 58 58 57 56 56 56 55 55 54 52 51 50 49 48 46 43 41 39 38 37 36 35 34 32 32 32 31 31 31 31 33 35 36 34 30 27 26 26 26 25 24 21 20 19 18 17 16 16 16 14 12 14 15
35 37 39 41 42 44 44 45 45 46 46 47 48 49 50 51 53 53 53 54 54 56 58 57 56 57 57 57 57 57 57 58 58 58 58 58 58 58 57 57 56 55 54 52 50 49 46 45 43 40 40 38 37 36 35 33 32 31 31 31 30 31 30 28 28 29 31 31 30 28 26 25 26 27 26 23 20 18 17 16 16 15 14 13 12 13 12
32 34 35 38 39 41 43 44 44 45 46 46 48 49 49 50 52 52 52 53 52 54 55 55 56 56 55 56 56 56 57 58 58 58 58 58 58 58 57 56 55 54 52 50 47 45 42 40 39 38 38 37 36 35 34 33 32 31 31 30 29 30 29 27 24 23 23 24 25 25 23 24 25 25 25 22 18 17 15 15 15 14 13 13 14 12 11
33 34 34 35 36 37 39 40 41 42 43 44 46 48 48 49 50 51 52 52 52 54 55 55 56 56 56 57 57 58 58 58 58 58 58 57 56 56 55 54 53 51 48 46 43 41 39 38 37 36 36 35 33 33 33 32 31 31 30 28 27 27 27 26 24 23 23 22 22 21 19 20 22 22 22 20 17 15 14 14 14 13 13 14 15 13 12
39 39 39 39 39 39 38 38 39 39 40 40 42 44 45 46 47 48 49 50 51 53 54 54 55 55 55 56 56 56 56 55 55 54 54 54 53 52 51 48 47 45 42 41 40 39 39 38 37 36 35 34 32 32 32 31 30 28 27 26 25 24 25 25 24 24 24 23 21 20 18 18 19 20 20 18 16 14 14 14 14 14 13 14 17 18 22
45 45 45 45 45 45 44 43 42 41 41 40 40 42 42 41 43 43 43 44 44 45 46 46 47 47 48 48 49 49 49 49 49 48 46 46 44 43 43 41 39 39 38 38 39 40 40 40 39 37 36 34 32 31 31 29 28 27 26 25 24 23 23 23 22 22 22 21 20 18 17 17 17 19 19 17 15 14 14 15 16 16 17 20 25 29 33
48 48 48 47 47 47 46 45 44 44 43 43 42 43 43 42 43 43 42 42 42 42 43 42 42 42 42 42 42 42 42 42 41 40 40 40 39 38 38 38 38 38 38 39 39 39 39 38 37 36 35 33 32 30 30 29 28 27 26 25 23 22 21 20 19 20 20 20 19 17 17 17 17 20 21 19 17 17 19 23 25 25 27 29 31 32 36
48 47 47 47 47 47 46 46 46 45 45 45 45 46 47 47 47 48 48 48 47 47 46 45 45 43 42 42 42 41 41 41 41 41 42 43 43 42 42 41 41 40 39 38 37 36 34 33 32 32 31 30 29 28 28 27 25 25 24 23 21 20 19 19 18 18 18 19 19 19 19 20 25 32 34 31 30 31 33 34 34 32 31 32 32 31 34
47 47 47 48 47 47 47 46 47 46 46 46 47 47 48 48 49 50 51 51 51 51 51 50 49 48 47 46 46 46 46 46 46 46 46 45 45 44 42 41 39 38 36 34 33 32 30 29 28 27 26 25 25 24 24 23 22 22 21 20 20 18 18 18 17 18 21 24 27 29 31 35 41 47 46 41 39 38 36 34 33 32 31 30 29 27 29
43 44 45 47 47 48 48 48 48 49 48 48 48 48 48 48 48 49 50 50 50 50 50 50 49 49 48 48 47 47 46 45 44 43 42 41 39 38 37 35 34 33 31 30 29 27 26 26 24 23 23 22 21 20 20 19 18 19 19 19 20 21 23 25 26 28 33 37 38 38 39 42 44 45 42 38 35 33 31 30 32 32 29 26 24 24 24
38 39 40 41 42 43 44 44 44 45 45 45 45 45 45 45 45 44 45 45 45 44 45 44 43 43 42 42 41 40 39 38 37 36 34 33 32 31 30 29 28 27 25 25 24 23 22 22 20 20 20 19 19 20 20 23 25 27 30 31 33 35 37 39 38 37 38 39 37 35 34 36 38 37 34 31 28 26 25 26 30 31 27 22 21 21 20
29 31 32 34 35 36 37 38 38 39 39 39 39 39 39 39 39 38 38 38 37 37 36 36 35 34 33 33 32 31 31 30 29 28 27 26 26 25 24 23 23 23 22 22 22 21 21 22 23 24 25 26 30 34 37 41 45 46 46 45 44 44 42 40 38 35 34 33 31 29 29 32 35 32 28 26 24 22 20 20 25 27 23 17 16 17 16
24 25 26 26 27 27 28 29 29 29 30 31 31 31 31 31 31 30 30 30 29 29 28 28 27 27 26 26 26 25 25 24 24 23 23 22 22 22 22 22 22 23 25 26 27 29 31 34 37 40 40 40 42 44 45 45 44 43 42 40 39 37 36 34 32 30 30 28 26 23 23 25 28 26 22 21 20 17 15 15 18 21 18 13 12 11 11
17 18 19 20 21 22 23 23 24 24 24 25 24 24 24 24 24 24 24 24 23 23 23 24 23 23 23 23 23 23 23 23 23 23 24 25 26 27 30 31 33 35 37 39 41 43 43 45 45 45 43 41 39 39 37 36 36 35 33 32 30 29 28 26 25 23 22 21 19 18 17 17 19 17 15 15 14 12 11 11 12 14 12 9 8 8 8
29 26 23 21 19 18 17 17 17 18 18 18 19 20 21 21 22 23 24 24 24 25 25 27 27 28 28 29 30 31 33 34 35 37 39 42 44 45 46 48 48 48 48 48 48 46 44 43 41 40 38 36 34 33 32 30 29 27 25 23 21 20 18 17 16 15 14 13 12 11 11 11 11 11 10 9 9 8 8 8 8 8 8 7 7 6 6
73 69 65 60 54 50 48 45 43 42 41 40 39 40 41 41 41 42 43 44 46 47 48 49 50 51 52 53 53 54 56 57 58 59 59 59 58 57 56 55 54 52 50 49 47 45 42 40 38 37 35 32 29 26 24 22 20 18 16 15 13 12 11 10 10 9 8 8 8 8 8 8 8 8 7 6 6 7 6 6 6 7 7 6 6 6 5
94 94 93 91 89 87 86 84 82 81 79 77 76 75 76 77 77 77 77 76 76 76 75 74 74 72 72 71 69 68 68 67 66 65 63 62 60 59 57 55 53 51 49 47 45 42 39 36 33 31 28 26 23 21 18 16 15 13 11 10 9 9 8 7 7 7 7 8 8 8 9 9 9 8 7 7 7 7 6 6 6 7 8 8 7 7 6
102 102 101 100 100 99 99 98 97 97 96 95 94 94 93 94 93 93 91 89 87 85 82 79 77 75 73 71 69 67 66 64 63 62 61 59 57 55 53 51 48 46 43 40 38 35 32 30 27 25 23 21 19 18 16 14 12 11 9 8 8 8 8 8 7 8 8 8 8 9 10 11 10 9 9 9 9 8 7 7 8 8 9 10 10 8 8
108 108 107 106 105 104 103 102 101 100 99 98 97 95 94 93 92 90 88 86 85 83 79 76 73 71 69 67 65 64 61 60 58 56 54 52 50 47 45 42 39 37 35 33 31 29 27 25 23 21 20 18 17 16 16 15 15 12 10 10 10 9 9 9 9 9 9 8 9 10 10 10 10 10 10 10 9 9 8 8 9 9 9 10 10 9 8
111 109 107 104 101 99 98 97 96 95 94 92 91 90 89 89 88 86 84 82 80 78 74 71 69 66 64 62 60 57 55 53 51 48 47 45 42 40 38 36 33 31 29 28 26 24 23 21 20 19 18 17 17 17 17 19 21 19 16 14 13 12 11 11 10 9 9 9 9 9 9 8 9 9 9 9 8 8 8 8 9 9 8 8 9 9 8
102 99 97 95 93 92 92 92 92 92 90 89 88 86 85 83 81 79 77 74 72 70 67 65 62 60 57 55 52 50 47 46 44 42 41 39 36 34 32 29 27 25 23 21 20 19 18 18 18 18 18 18 19 19 19 21 24 24 23 21 18 16 14 13 12 11 10 10 10 9 9 8 8 8 8 8 8 8 7 8 8 8 8 8 8 9 8
90 88 87 86 85 86 87 88 89 90 89 87 85 82 79 76 74 73 70 67 65 63 60 58 56 53 51 48 46 44 41 40 39 37 35 33 30 28 26 24 22 20 18 18 17 17 17 17 18 18 19 19 20 21 20 22 24 25 26 26 24 22 19 17 16 14 13 13 13 11 11 12 11 10 10 9 9 9 8 8 8 7 8 8 8 9 9
86 86 86 86 86 86 86 86 86 85 83 81 78 75 72 70 68 67 64 61 59 57 55 53 50 48 46 43 40 38 36 35 35 34 32 31 29 27 24 21 20 19 18 18 19 18 18 18 18 18 19 19 20 21 21 22 24 25 25 26 26 26 24 23 21 18 17 17 16 14 15 15 13 12 11 10 9 9 9 8 9 8 9 9 9 9 10
86 86 85 84 84 82 81 79 78 76 74 72 69 66 63 61 60 58 56 54 52 51 49 47 44 42 40 38 35 35 35 35 35 34 33 31 30 27 24 21 21 22 22 21 19 18 18 18 17 17 18 19 20 21 20 21 23 23 24 25 25 25 26 25 23 21 20 19 17 17 17 16 14 13 12 11 10 10 10 9 9 9 9 10 10 10 11
86 86 84 83 81 80 79 77 74 71 68 64 62 59 57 55 54 52 50 48 47 45 43 41 40 37 35 34 33 33 34 35 35 35 34 32 30 27 25 24 25 25 23 20 17 17 17 16 16 16 17 18 19 19 18 19 19 20 20 21 22 23 23 22 22 22 21 20 19 18 17 16 13 11 11 11 10 9 9 9 9 10 10 11 11 12 12
87 86 84 82 81 79 77 73 69 65 61 58 56 54 52 50 48 47 46 44 42 41 39 38 37 35 33 33 33 33 34 34 34 34 33 30 27 26 27 28 27 24 21 18 16 16 15 15 15 15 16 17 17 17 16 16 16 17 17 19 20 20 20 20 19 19 20 20 18 17 17 17 15 12 11 11 10 10 10 9 9 9 9 10 11 11 11
87 85 83 81 78 75 71 66 62 59 56 53 51 49 47 46 45 44 43 42 41 41 40 39 38 36 36 36 35 33 33 33 31 30 28 26 26 27 29 29 26 22 19 17 15 15 14 14 15 16 15 15 15 15 14 14 14 15 16 16 18 18 18 17 17 17 17 18 17 16 16 16 15 13 12 10 9 9 9 9 8 8 8 8 8 9 9
86 83 80 76 72 67 62 58 55 52 49 47 46 45 44 44 44 44 44 44 44 44 43 42 40 39 37 35 34 33 33 31 29 28 27 27 29 29 28 25 22 19 17 16 16 15 15 15 16 16 14 14 13 14 14 13 13 14 15 14 15 16 16 16 16 16 16 17 17 16 16 15 14 14 13 11 9 8 8 8 7 7 7 7 6 6 7
81 77 72 67 62 58 54 51 49 47 47 47 47 47 48 48 48 48 48 48 47 45 44 42 40 38 36 36 36 37 35 33 30 30 31 32 31 28 25 22 20 18 17 16 16 16 16 16 17 16 14 13 14 16 16 14 14 15 17 16 15 15 15 16 16 16 16 16 16 16 16 15 15 15 15 14 12 10 10 9 8 7 7 7 6 5 5
72 66 61 56 53 51 49 48 48 48 49 51 51 51 51 50 48 48 48 47 46 44 44 42 39 38 39 41 42 41 38 36 36 37 37 35 31 26 23 22 21 19 18 18 18 19 19 17 16 16 17 17 17 18 18 16 15 17 19 20 19 17 17 17 17 16 15 15 15 16 16 15 15 15 16 16 15 13 12 11 10 9 8 7 7 6 5
58 55 53 52 52 52 52 54 54 53 53 51 50 49 48 47 47 48 48 47 46 44 43 42 42 45 47 47 46 45 44 44 45 44 39 33 29 26 24 24 22 21 20 20 21 21 20 17 16 18 21 22 21 21 20 17 15 17 20 22 22 20 19 19 18 17 15 14 14 14 15 15 15 15 16 17 16 15 13 12 11 10 9 9 8 6 5
56 58 58 58 57 57 56 54 52 48 46 44 43 44 45 46 48 49 49 49 49 49 50 52 55 57 57 55 53 52 52 50 47 41 35 31 29 28 27 26 25 24 23 24 25 24 20 17 18 22 26 26 24 23 21 17 16 19 22 23 22 21 20 19 19 18 16 14 14 14 14 14 14 14 14 14 15 14 13 12 11 10 10 10 9 7 7
61 60 57 54 52 50 48 46 45 43 43 44 46 48 49 51 53 55 56 58 58 59 60 62 62 61 59 57 54 51 46 42 39 37 36 34 32 31 31 30 28 26 26 27 28 25 20 17 20 26 28 28 27 24 20 17 18 21 23 22 21 20 19 19 19 18 16 15 15 14 14 13 13 14 14 13 13 13 12 11 11 9 9 9 9 8 7
53 51 50 51 51 52 52 52 52 52 52 52 52 52 52 53 54 54 54 54 53 53 52 52 52 50 48 47 43 38 35 34 35 37 39 37 34 32 31 29 27 25 25 27 28 26 21 19 23 28 29 29 30 26 20 18 19 21 22 21 20 19 18 18 18 18 16 15 14 14 13 12 12 12 12 12 12 12 11 11 10 9 8 8 8 8 7
60 61 63 64 64 63 61 59 56 54 51 48 46 44 43 42 41 40 40 39 38 39 39 38 38 38 36 35 33 31 31 33 34 35 36 35 33 30 27 25 24 23 23 25 27 25 22 21 25 29 29 31 31 26 20 19 21 22 21 21 20 18 17 16 16 16 15 14 13 12 12 11 11 11 10 10 11 11 10 9 9 8 7 6 7 7 6
74 73 71 68 64 60 57 54 51 48 45 42 40 38 38 37 36 35 35 34 34 35 34 33 34 33 31 30 28 26 27 30 32 34 35 34 31 27 24 23 23 22 20 23 26 24 22 23 26 28 28 29 28 23 20 20 22 20 19 19 17 16 15 14 13 13 13 12 12 11 10 10 10 9 9 8 8 8 8 8 7 6 6 5 5 5 5
76 71 66 62 59 56 53 51 48 45 42 41 40 39 38 38 37 35 35 34 33 32 32 32 31 30 28 27 26 26 28 32 35 37 36 32 28 26 24 23 21 18 17 20 24 23 22 23 24 23 24 25 23 20 19 21 20 18 17 16 15 14 14 12 11 10 10 10 10 9 9 8 8 8 7 7 7 7 7 6 6 5 5 5 4 4 4
69 64 60 58 54 51 49 46 43 42 41 40 41 41 40 39 38 37 36 35 33 31 31 30 29 28 26 27 28 29 32 35 36 35 32 28 25 24 23 22 19 16 15 18 20 19 19 20 19 18 20 20 18 17 18 18 17 15 14 14 14 13 12 11 10 9 8 8 7 7 6 6 6 6 6 6 6 6 5 5 5 4 4 4 4 4 4
59 56 54 52 48 45 44 41 39 38 38 38 38 39 37 36 35 34 33 32 31 31 30 29 28 28 27 29 32 34 35 36 35 31 29 28 27 24 23 22 20 16 15 16 16 15 15 16 16 16 16 15 14 14 15 14 13 13 13 13 13 13 11 10 9 8 7 6 6 6 6 5 5 5 5 4 4 4 4 4 4 3 3 4 3 3 3
53 50 48 45 42 40 39 36 34 34 34 34 34 34 33 33 33 32 32 31 30 29 29 28 28 28 29 31 35 37 37 36 33 30 30 32 30 27 26 25 21 16 14 13 13 14 14 15 16 16 14 12 12 12 11 11 11 12 13 13 12 11 10 9 8 7 6 6 6 5 5 5 4 4 4 4 3 3 3 3 3 3 3 3 3 3 3
50 47 44 42 40 38 36 35 34 34 33 32 33 33 33 34 33 31 30 30 29 29 30 30 30 32 34 34 35 37 38 37 34 32 34 36 33 30 29 26 19 14 12 13 14 15 15 15 16 15 12 10 10 10 11 12 13 14 14 13 12 10 9 8 7 6 6 5 5 5 4 4 4 4 3 3 3 3 3 3 3 2 3 3 3 3 3
50 47 44 42 41 40 39 38 38 36 35 33 34 34 34 34 33 32 31 30 31 33 34 34 34 37 38 37 39 42 45 44 41 39 40 40 36 31 28 24 17 12 12 14 16 17 17 16 15 13 11 11 12 13 14 16 15 14 13 11 9 8 7 6 5 5 5 4 4 4 3 3 3 3 3 3 3 3 3 2 2 2 2 2 3 3 3
50 48 47 46 46 45 44 43 43 41 38 36 36 38 37 36 35 34 32 32 35 39 40 41 42 43 43 46 50 55 57 56 54 52 51 48 41 33 26 19 14 12 14 17 19 18 17 16 15 13 13 15 16 17 17 16 14 11 10 8 7 6 6 5 5 4 4 4 4 3 3 3 3 3 3 3 3 2 2 2 2 2 2 2 2 3 3
52 52 53 53 52 52 51 50 49 47 45 43 44 45 43 40 38 36 37 41 48 53 54 54 53 54 57 62 65 67 69 67 64 61 58 50 40 31 23 17 14 14 16 19 19 17 17 18 17 16 16 18 18 18 16 14 12 9 7 6 5 5 5 5 4 4 4 3 3 3 3 3 3 3 3 3 3 2 2 2 2 2 2 2 2 2 2
56 58 60 61 60 61 61 60 58 56 57 59 59 57 53 50 48 48 51 57 64 69 69 67 65 67 73 75 74 75 77 75 70 68 63 50 35 26 22 18 15 17 19 19 18 17 18 20 20 19 18 18 18 17 14 11 8 7 5 5 5 5 5 5 4 4 4 3 3 3 3 3 3 2 2 3 2 2 3 2 2 2 2 2 2 2 2
63 66 67 68 70 72 71 69 67 67 71 76 76 71 67 65 64 65 67 72 77 79 79 78 79 84 90 90 87 87 87 83 79 75 63 43 29 25 22 18 17 20 21 20 19 19 20 22 22 22 20 18 15 12 10 8 7 6 5 5 5 4 4 4 4 3 3 3 3 3 3 2 2 2 2 3 3 3 3 3 2 2 2 2 2 2 2
71 74 76 79 82 82 81 80 79 81 85 88 85 80 76 76 79 80 80 82 85 85 84 85 90 97 102 104 103 100 97 93 87 75 54 35 28 27 22 18 19 23 23 21 21 23 24 24 23 22 20 16 12 10 8 7 6 6 5 5 5 4 4 4 3 3 3 3 3 3 2 2 3 3 2 3 3 3 3 3 2 2 2 2 2 2 2
84 86 88 90 91 92 92 91 91 91 91 89 84 81 82 87 92 93 92 91 90 88 87 91 97 103 107 110 108 106 104 99 86 64 43 33 32 28 21 18 21 24 24 24 25 26 26 25 23 21 18 15 11 9 8 6 6 6 5 5 4 3 3 3 3 3 3 3 2 3 2 2 2 2 2 2 3 2 3 3 2 2 2 2 2 2 2
100 97 95 95 96 98 99 100 101 101 96 88 83 84 90 96 99 100 99 97 93 90 91 96 99 102 106 105 103 103 104 94 72 49 37 35 33 26 21 21 24 26 27 29 29 28 27 26 23 19 16 13 10 8 7 6 6 5 4 4 3 3 3 3 3 2 3 2 2 2 2 2 2 2 2 2 2 2 2 2 2 2 2 2 2 2 2
109 107 104 101 100 101 102 105 108 108 102 93 90 92 97 100 101 101 99 98 97 98 101 104 104 104 103 100 98 99 94 75 52 39 37 35 30 25 23 26 30 31 32 32 32 30 29 26 22 17 13 10 8 8 7 6 5 4 3 3 3 3 2 3 2 2 2 2 2 2 2 2 2 2 2 2 2 2 2 2 2 2 2 2 2 2 2
104 107 108 105 103 104 107 108 109 108 105 104 105 105 103 102 102 100 98 99 102 105 106 105 105 104 103 100 98 93 77 54 40 38 37 32 27 27 30 32 34 34 33 33 33 31 27 23 19 15 11 8 7 7 6 5 4 4 3 3 3 3 2 2 2 2 2 2 2 2 2 2 2 2 2 2 2 2 2 2 2 2 2 2 2 2 2
100 101 103 103 102 103 105 107 106 105 104 107 111 112 110 108 104 99 97 102 106 106 105 103 103 103 103 101 93 79 59 44 40 41 36 29 29 35 37 37 36 36 36 35 33 29 24 20 17 13 9 8 7 6 5 4 4 3 3 3 3 2 2 2 2 2 2 2 2 2 2 2 2 2 2 2 2 2 2 2 2 2 2 2 1 2 2
Wind_Speed
22 21 21 21 21 21 21 22 22 22 23 23 23 23 24 25 25 26 26 27 28 29 30 31 32 33 34 35 36 38 39 40 41 43 44 45 46 48 49 50 51 52 52 53 54 55 56 58 59 60 60 61 62 62 63 64 65 65 66 67 67 68 68 68 68 69 71 73 76 78 79 80 81 82 83 84 85 87 88 88 86 84 83 83 81 80 78
22 22 21 21 21 21 21 21 22 22 23 23 23 24 25 25 26 27 28 29 29 30 32 33 34 35 36 37 38 40 41 42 44 45 46 48 49 50 51 52 53 54 55 56 56 57 58 59 61 62 63 64 65 65 66 67 68 68 69 69 70 70 71 72 72 71 71 73 75 78 79 81 82 84 86 86 87 89 89 89 87 86 85 82 82 82 78
21 21 21 21 21 22 22 22 22 23 23 24 24 25 26 26 28 29 29 30 31 32 33 34 35 37 38 39 40 41 43 44 46 47 48 49 51 52 53 54 55 56 57 58 59 60 61 62 63 64 65 66 67 68 68 69 70 71 72 72 73 73 74 76 77 77 76 75 76 78 78 79 82 84 86 87 88 89 89 89 88 88 86 82 83 83 78
20 21 21 21 22 23 23 24 24 25 25 26 26 27 28 28 29 30 31 32 33 34 36 36 38 39 40 41 42 44 45 47 48 49 50 51 53 54 55 56 57 58 59 61 62 63 64 65 65 66 67 68 69 70 71 72 73 74 75 76 76 76 77 78 80 80 81 81 82 83 82 82 84 87 89 90 90 90 90 90 90 90 88 84 84 84 81
22 22 22 22 23 23 24 25 25 26 27 27 28 29 30 31 32 33 33 35 36 37 38 39 40 42 43 44 45 47 48 49 51 52 53 54 55 56 58 59 60 61 62 63 64 65 66 67 68 69 69 70 72 73 74 75 76 77 78 79 79 79 79 81 82 82 83 85 86 86 87 86 88 90 93 94 93 92 92 91 91 92 91 87 87 87 86
24 24 24 25 25 25 26 26 27 27 28 29 30 31 32 33 34 35 36 37 38 39 41 42 43 44 46 47 48 49 51 52 53 55 55 57 58 59 60 61 62 63 64 65 66 67 68 69 70 72 72 73 75 76 77 78 79 81 82 82 83 83 83 83 84 83 85 88 88 89 89 89 90 93 96 96 94 93 92 92 93 94 93 91 91 91 90
26 26 26 27 27 27 28 28 29 29 29 30 31 32 33 34 35 36 37 38 40 41 42 43 45 46 48 49 50 51 53 54 55 57 58 59 60 61 62 63 65 66 66 67 68 69 70 70 72 74 75 76 78 78 80 81 82 84 85 86 87 87 87 87 87 86 87 90 92 91 90 90 91 94 98 97 95 94 94 94 95 95 95 95 95 94 94
28 28 28 28 28 29 29 30 30 31 31 32 33 34 35 35 36 37 38 39 41 42 43 45 46 48 49 50 52 53 54 56 57 58 59 60 62 63 64 65 67 68 69 70 71 73 73 73 74 75 76 78 80 81 82 83 85 86 88 89 90 91 91 91 91 89 88 90 92 92 91 90 92 95 99 99 97 96 97 98 98 98 97 97 98 97 96
29 29 29 30 30 31 31 32 32 33 33 34 35 36 36 37 38 39 40 42 43 44 45 47 48 49 51 52 53 55 56 58 59 60 61 63 64 65 67 68 69 71 72 73 75 76 77 77 78 79 79 80 82 83 84 85 87 88 90 91 92 93 93 93 92 90 88 90 92 91 90 91 94 99 103 101 100 100 100 100 100 100 99 99 99 98 97
31 31 31 32 32 32 33 33 34 35 35 36 37 38 39 40 41 42 43 44 45 46 48 49 50 51 53 54 55 57 58 60 61 62 64 65 67 68 69 71 72 73 74 76 78 79 80 80 81 82 83 84 85 86 87 88 88 89 90 91 91 92 93 93 93 92 91 92 94 93 92 92 96 103 107 105 103 103 102 101 102 102 102 100 100 99 99
33 34 34 34 34 35 35 36 36 37 38 38 39 40 41 42 44 45 45 47 48 49 50 52 53 54 56 57 58 60 61 62 64 65 66 68 69 71 72 73 75 76 77 78 80 81 82 83 84 84 85 86 86 87 88 89 90 91 92 93 93 94 95 96 98 97 96 97 98 97 96 95 98 105 110 109 106 105 103 102 103 105 104 102 101 101 101
36 36 36 37 37 37 38 38 39 40 40 41 42 43 44 45 46 48 49 50 51 52 53 55 56 57 59 60 61 63 64 65 67 68 69 70 72 73 74 76 77 78 79 80 81 82 83 83 84 85 86 86 87 88 89 90 92 93 95 96 97 98 100 101 102 102 101 101 101 99 98 97 100 106 111 112 110 108 105 103 103 106 106 102 100 100 100
37 37 38 38 39 39 40 40 41 42 43 44 45 46 47 48 49 50 51 52 54 55 56 57 59 60 61 62 64 65 66 67 69 70 71 72 73 74 76 77 78 78 79 80 81 82 83 84 85 86 88 88 89 90 92 93 94 96 98 99 100 101 102 103 103 104 104 104 103 102 100 98 100 106 111 112 111 109 106 102 100 103 104 100 97 96 96
34 36 37 38 39 40 41 42 43 44 45 45 46 47 49 50 50 51 52 53 55 56 57 58 60 61 62 64 65 66 67 68 69 71 72 73 74 75 76 77 78 80 81 82 83 84 85 87 88 89 91 92 93 94 96 97 98 99 101 101 102 102 103 103 104 104 105 104 103 101 99 96 98 103 107 108 107 105 103 99 95 95 97 95 92 90 90
27 29 30 32 34 35 37 39 40 42 43 44 45 46 47 48 50 51 52 53 54 55 57 58 60 61 62 63 65 66 67 68 70 71 72 74 75 77 78 80 81 83 84 86 87 89 90 91 92 93 95 96 96 97 98 99 100 101 102 102 102 102 102 102 101 101 101 101 99 96 93 90 92 97 100 100 100 99 98 96 91 89 90 89 87 86 85
25 26 28 29 30 32 33 35 36 38 39 41 42 43 45 47 48 49 51 52 54 55 57 58 60 61 63 64 66 67 68 70 72 74 75 77 79 81 82 84 86 87 89 90 92 93 94 95 96 97 99 100 100 100 101 101 101 101 101 100 100 99 98 98 97 96 96 96 94 92 89 87 88 91 92 93 93 93 94 92 88 85 86 86 84 83 83
28 29 30 31 32 33 34 36 37 38 40 41 42 44 46 47 49 50 52 54 55 57 58 60 62 64 65 67 68 70 71 73 75 77 79 81 82 84 85 87 88 90 91 93 94 95 97 98 98 99 100 101 101 102 102 102 102 101 100 99 98 97 97 95 94 93 93 92 90 88 87 87 88 88 87 88 89 89 90 88 85 83 84 84 82 81 80
30 31 32 33 34 35 37 38 39 41 42 44 45 46 48 50 51 53 54 56 58 60 62 63 65 67 68 70 71 73 74 76 77 79 81 83 85 86 87 89 90 91 93 94 95 96 97 98 98 98 99 99 99 100 100 101 102 101 100 99 98 97 96 95 94 93 93 91 89 88 87 87 87 86 85 86 86 86 85 83 82 83 83 83 82 81 80
31 32 34 35 36 37 39 40 42 43 44 46 48 49 51 52 54 56 57 59 61 63 65 67 68 70 71 73 74 75 77 78 79 81 83 85 87 88 89 90 91 92 93 93 94 94 94 95 96 96 96 96 97 97 97 99 102 103 102 101 100 98 97 97 96 95 94 92 91 91 89 87 86 86 85 85 85 84 82 80 80 82 83 82 81 81 80
34 35 36 37 39 40 42 43 45 46 48 49 51 52 54 56 57 59 60 62 64 66 68 69 71 72 74 75 76 78 79 80 82 84 85 86 88 89 89 90 91 91 91 91 91 91 91 91 92 92 92 93 94 95 95 97 100 103 103 103 103 102 101 99 99 98 96 95 94 94 92 89 87 86 85 84 84 83 81 79 79 81 82 82 82 81 80
38 39 40 41 43 44 45 47 48 50 51 53 54 56 57 59 61 62 64 65 67 69 71 72 74 75 77 78 79 80 81 81 83 84 85 86 88 88 88 89 89 89 89 89 88 89 89 88 88 89 90 90 92 94 94 94 96 99 101 102 102 103 103 102 100 100 99 98 98 97 94 92 92 91 89 86 84 83 82 81 80 80 81 82 81 81 81
41 42 43 45 46 47 48 50 52 53 55 56 58 59 61 62 64 65 67 68 70 71 73 75 76 77 78 79 80 80 80 81 81 82 83 85 87 88 88 88 89 88 88 88 88 87 87 87 87 87 88 88 89 91 93 92 93 94 96 97 98 100 103 103 101 101 101 101 101 99 97 95 96 96 94 90 87 86 85 84 83 82 81 81 81 81 82
43 45 46 47 48 50 51 53 54 56 57 59 61 62 63 64 66 67 68 69 71 72 74 75 76 77 78 79 79 79 78 78 79 81 82 84 85 86 87 88 88 88 88 89 88 87 86 86 86 85 85 86 87 88 89 89 89 90 90 91 93 95 97 99 99 100 101 101 102 101 99 97 98 97 96 94 91 89 87 86 85 84 83 83 83 82 82
46 47 48 49 50 52 53 54 56 57 59 61 62 64 65 65 67 68 69 70 71 72 73 75 75 76 77 77 77 76 75 76 77 79 81 83 84 85 87 88 88 89 89 89 89 87 86 85 84 83 83 83 84 85 86 85 85 86 85 86 87 89 91 93 94 96 98 98 100 99 98 97 99 98 96 95 93 91 89 87 86 85 85 85 85 85 84
48 49 50 51 52 53 54 56 57 59 61 62 64 65 66 67 68 68 69 69 70 71 72 73 74 75 75 75 74 74 74 75 77 79 81 83 85 86 87 88 89 90 91 91 89 88 86 85 84 82 81 80 81 82 83 82 82 83 83 82 83 85 87 88 89 90 93 95 97 97 96 96 99 100 98 96 95 93 91 89 87 86 85 85 86 86 86
50 51 52 53 54 55 56 58 59 61 62 63 64 65 65 66 67 67 68 68 69 70 71 72 73 75 75 75 75 75 76 77 78 80 81 83 85 87 87 88 90 91 92 91 90 88 86 84 82 81 80 79 79 81 82 81 80 80 79 78 79 81 83 85 86 85 87 90 94 95 94 94 97 100 100 99 97 95 93 92 90 88 86 84 84 84 85
51 52 53 54 56 57 58 60 61 61 62 62 63 63 63 64 65 66 67 68 69 71 72 73 74 75 76 77 78 78 79 79 80 81 83 84 85 86 86 88 89 90 91 90 89 87 84 81 79 79 79 79 79 79 80 79 77 76 75 74 75 77 79 82 84 83 83 86 90 92 93 93 95 98 101 102 101 99 97 96 94 92 90 87 85 84 84
52 54 55 57 58 58 59 59 59 59 59 59 60 61 62 63 65 67 68 70 71 72 74 75 76 77 78 80 80 81 81 82 82 83 84 84 84 85 85 87 88 88 88 87 86 84 82 78 77 78 78 78 77 78 79 79 76 74 73 73 73 75 77 79 81 81 81 83 87 90 91 93 95 97 100 102 103 102 102 101 99 97 96 93 91 88 85
54 56 56 57 57 57 56 56 56 57 58 59 60 62 63 65 67 68 70 72 73 75 76 78 79 80 81 81 82 83 83 84 84 84 84 84 84 84 85 86 86 86 85 84 83 82 80 78 76 77 78 78 77 76 78 80 77 73 73 74 75 76 77 78 79 80 80 81 83 86 89 91 93 94 96 99 102 102 103 103 103 101 100 98 96 93 90
54 54 54 54 54 54 55 55 56 58 59 60 62 63 65 67 69 70 72 74 76 78 79 80 81 82 82 82 83 84 84 84 84 84 84 83 84 84 84 85 85 84 83 82 82 82 81 78 76 76 77 77 76 76 78 80 78 74 74 77 79 79 78 79 80 81 81 80 81 83 85 88 90 91 92 95 99 101 102 103 103 103 102 101 100 97 94
51 51 51 52 53 55 56 58 59 60 62 63 64 66 68 69 71 73 75 77 79 80 81 82 82 83 83 83 84 84 84 84 83 83 83 84 84 84 84 84 84 83 83 82 82 82 81 79 78 78 77 77 77 76 78 80 80 76 75 78 81 82 81 81 83 84 85 84 83 83 84 87 89 89 90 91 94 98 100 102 103 103 103 102 101 100 98
49 50 52 54 56 58 59 61 63 64 65 66 67 69 70 71 73 75 77 79 80 81 82 82 83 83 83 84 83 83 82 82 83 83 84 84 84 84 84 84 85 85 84 84 84 83 81 80 80 79 79 79 78 78 79 80 80 79 79 81 83 84 84 84 86 87 88 89 88 87 86 87 88 89 90 91 92 95 98 100 102 102 103 102 102 102 100
50 53 55 57 59 61 63 65 66 67 68 69 70 71 72 73 75 76 78 79 80 81 81 82 82 82 82 82 81 81 81 82 82 83 84 85 85 85 84 85 85 85 84 84 84 84 83 81 80 79 79 80 81 81 80 78 79 81 82 84 85 85 85 86 87 89 90 91 91 91 90 90 89 89 90 91 92 94 97 99 101 102 102 102 102 102 101
54 56 59 61 63 65 67 68 69 70 71 71 72 72 73 73 74 75 76 76 77 77 78 79 79 80 80 80 81 82 82 82 82 83 84 85 85 85 85 85 84 83 82 83 84 85 84 81 79 79 80 82 85 85 81 77 78 81 84 85 86 87 86 86 87 89 90 92 92 93 93 93 92 92 92 92 93 94 96 99 101 102 102 102 101 101 101
57 60 62 64 66 67 68 69 70 70 70 70 70 70 70 70 71 71 72 73 73 74 75 76 77 78 79 79 80 81 82 82 83 83 84 84 85 85 84 83 82 81 81 82 84 84 82 80 79 79 79 83 87 87 83 80 81 83 84 85 87 87 87 86 86 87 89 91 92 93 94 95 95 94 94 95 95 96 97 98 100 102 102 101 100 100 99
60 62 63 65 66 67 68 68 69 69 69 69 69 69 69 69 70 70 71 72 72 73 74 76 76 77 78 79 79 80 81 81 82 83 84 84 84 84 84 82 81 79 78 80 83 82 79 77 78 78 80 84 88 87 84 85 86 85 84 85 86 87 87 88 88 88 89 90 92 93 94 95 96 96 96 96 97 97 98 98 99 101 101 100 99 98 97
61 63 64 65 67 67 68 69 69 69 70 70 70 70 70 70 71 71 72 73 73 74 74 75 76 77 78 79 80 80 80 81 81 82 83 84 84 84 84 83 81 78 75 77 81 80 77 77 77 77 80 85 88 85 85 87 87 86 85 85 86 87 88 89 90 91 91 91 91 92 93 94 95 95 96 97 97 97 97 98 99 99 100 99 97 95 94
62 63 65 66 67 68 68 69 70 70 71 71 71 71 71 71 71 72 73 73 74 74 75 76 77 77 78 79 81 81 82 82 83 84 85 86 85 84 84 84 81 76 73 75 78 79 78 77 78 78 81 84 84 83 83 86 86 85 86 87 88 89 90 91 92 93 93 93 93 93 93 93 93 94 94 94 95 95 95 96 97 97 98 97 95 93 91
63 64 65 66 67 68 69 70 71 71 71 71 71 71 71 72 72 72 73 74 74 75 76 77 77 78 79 80 82 84 85 85 85 86 86 88 87 85 84 85 83 79 75 76 78 78 78 78 79 80 81 81 79 80 81 82 83 84 87 89 90 92 92 93 93 94 95 96 97 97 97 97 96 95 95 94 94 93 93 93 93 94 94 94 92 90 89
63 63 65 66 67 68 69 70 71 72 72 71 71 71 72 72 73 73 74 74 75 76 76 77 78 79 81 81 83 86 87 87 87 86 87 89 89 88 87 89 88 83 79 79 80 81 81 81 81 83 82 79 78 78 80 81 83 86 89 91 93 94 95 95 96 96 97 98 99 99 99 98 98 97 97 96 95 93 91 89 88 87 87 87 87 86 86
62 63 65 66 67 68 70 71 72 72 72 72 72 72 73 73 74 74 74 75 76 77 77 78 79 81 83 84 85 87 89 89 89 89 89 91 92 92 92 93 91 86 82 83 85 86 85 84 84 85 83 80 79 81 83 84 87 90 93 94 95 96 97 97 97 97 98 98 98 97 97 96 95 94 94 93 93 92 91 88 85 83 81 80 80 79 80
63 64 65 66 67 69 70 71 72 73 73 73 73 73 74 74 75 76 76 77 77 78 79 80 81 83 85 86 88 89 91 92 93 93 95 96 96 96 96 95 92 88 87 89 90 90 88 87 87 86 84 84 85 87 90 92 93 94 95 96 96 97 97 97 97 96 96 95 95 94 93 92 91 90 89 88 88 88 87 86 84 81 78 76 74 73 73
62 64 65 67 68 69 71 72 73 74 74 75 75 75 75 76 76 77 78 78 79 80 82 82 84 86 88 89 91 93 94 96 97 98 99 100 100 100 99 96 92 90 91 93 94 92 90 90 90 89 89 91 93 95 97 98 98 97 97 97 97 97 97 97 96 95 94 93 92 92 91 91 90 89 87 86 85 84 83 82 81 80 78 76 73 71 70
61 63 65 67 68 70 71 73 74 75 76 77 77 77 77 78 78 79 80 81 82 84 85 86 87 88 90 92 93 94 96 98 99 100 102 103 103 102 101 98 95 94 95 96 95 93 92 93 94 94 95 97 100 101 102 102 102 101 99 97 97 97 97 96 95 94 93 93 92 92 91 91 89 88 86 84 83 82 81 80 80 80 79 76 74 72 70
61 63 65 67 68 70 71 73 75 76 77 78 79 80 80 81 82 82 82 83 85 86 87 88 89 90 92 94 95 96 97 99 100 102 105 105 104 103 103 101 98 98 99 99 97 95 95 97 99 99 100 102 104 105 105 105 104 103 101 99 98 98 98 97 96 95 93 92 92 90 89 88 86 84 83 81 80 79 79 79 80 79 78 75 73 71 70
62 64 65 67 68 70 72 74 76 77 77 78 79 81 82 84 84 84 84 85 86 88 89 90 91 92 93 95 96 97 99 101 101 104 107 107 105 105 104 101 100 102 104 102 100 100 101 103 104 105 105 106 106 106 106 105 105 105 104 102 100 99 99 98 97 95 93 91 89 87 85 84 83 82 80 78 76 74 73 74 75 75 74 72 70 68 67
62 64 66 68 70 72 73 75 76 77 78 79 80 82 83 85 85 85 85 86 88 89 91 91 92 93 94 96 97 98 100 102 103 105 108 109 108 108 106 103 102 105 107 106 106 108 109 109 110 110 110 109 108 107 107 107 107 106 105 104 102 101 99 97 95 92 91 89 87 84 82 80 79 78 77 74 71 68 66 66 67 68 68 67 66 65 64
63 65 67 69 71 72 74 76 77 78 79 80 81 83 84 85 86 86 87 87 89 91 92 92 93 93 95 97 98 99 101 104 106 107 108 110 112 112 109 106 105 108 110 110 112 114 115 115 115 114 113 112 111 110 109 109 108 107 106 105 103 100 97 94 91 88 86 85 82 80 77 76 74 73 71 69 65 62 61 61 62 63 63 63 62 61 60
65 67 68 70 72 73 75 77 78 80 81 82 83 84 85 86 86 87 88 89 91 92 93 94 94 95 96 99 100 101 103 106 108 109 110 111 113 114 112 111 111 113 115 117 118 119 119 118 117 116 115 114 113 112 111 110 109 108 107 105 101 97 94 91 87 84 82 80 78 76 73 72 70 68 65 63 60 58 57 57 58 59 59 59 58 57 55
67 68 70 71 73 75 76 78 79 80 82 84 85 86 86 88 89 90 91 92 93 94 94 95 96 97 99 101 102 103 105 108 110 111 111 113 114 115 115 116 118 120 121 122 123 122 121 120 119 116 115 113 113 112 112 111 110 108 106 103 99 95 91 88 85 82 79 77 75 73 70 68 66 64 61 59 57 56 55 55 55 56 55 55 56 55 52
69 71 72 74 75 76 78 79 79 80 83 85 86 87 88 90 91 92 93 94 95 95 96 97 98 99 101 102 104 106 109 111 112 112 113 114 115 117 119 121 123 124 125 125 125 124 122 121 119 117 115 114 114 114 113 110 108 106 103 100 97 93 90 87 84 81 78 75 73 71 68 66 64 61 59 58 56 55 53 53 53 53 54 54 55 54 51
71 73 75 76 77 78 79 80 80 81 83 85 87 88 90 91 93 94 95 96 96 97 98 99 101 102 103 104 107 111 114 115 114 114 114 115 117 120 123 124 126 128 128 128 127 125 123 121 119 118 117 116 116 114 112 109 106 103 101 98 95 92 89 86 83 80 76 73 71 69 66 64 62 60 58 57 55 53 52 51 51 52 53 54 53 52 51
Wind_Direction
206 208 210 213 216 219 222 224 227 229 232 234 237 239 241 243 246 248 251 253 255 257 260 262 265 267 268 270 272 274 275 277 278 279 280 281 282 284 285 286 287 288 289 290 291 292 293 294 294 295 295 295 295 295 296 296 296 297 297 297 298 298 299 299 300 301 302 303 303 304 305 306 307 307 307 308 308 307 307 308 309 311 311 311 314 315 316
213 215 218 220 223 226 228 231 234 237 239 242 244 246 248 250 252 254 256 258 260 262 264 266 267 269 271 272 274 275 276 277 278 279 280 281 282 283 284 285 286 288 289 290 290 291 292 292 293 294 294 295 295 295 295 296 296 296 296 297 297 298 298 298 298 299 300 301 302 303 304 305 306 307 307 307 306 305 306 307 308 309 310 312 314 313 316
220 223 226 228 231 233 236 238 241 243 246 247 250 252 254 255 257 259 261 262 264 265 267 269 270 272 273 274 275 276 277 278 278 279 280 281 282 283 284 286 287 288 289 289 290 291 291 292 292 293 293 294 294 295 295 296 296 296 296 297 297 298 299 299 299 299 300 300 300 301 301 303 304 304 304 304 304 304 305 306 307 308 309 312 313 313 316
225 229 232 235 238 240 242 245 247 249 251 252 254 256 258 260 261 263 264 266 267 268 270 271 272 273 274 276 276 277 278 279 280 281 281 282 283 284 285 286 287 288 289 289 290 291 291 292 292 293 293 293 294 295 295 296 296 296 297 297 297 298 299 300 300 301 302 302 302 302 303 304 304 304 304 303 303 304 305 306 308 309 310 313 313 313 316
229 232 236 239 242 244 247 249 251 253 255 257 258 260 262 263 265 266 267 268 270 271 272 273 274 275 277 277 278 279 280 281 281 282 283 283 284 285 286 286 287 288 288 289 290 291 292 292 293 293 293 294 294 295 295 296 296 297 297 297 298 298 299 300 300 301 302 303 303 303 304 305 305 305 304 304 304 305 306 308 309 309 310 313 313 313 315
232 235 237 240 243 246 249 251 254 256 258 260 261 263 265 266 267 268 269 271 272 273 275 276 277 278 278 279 280 280 281 281 282 282 283 284 284 285 286 286 287 288 289 289 290 291 292 293 294 294 295 295 295 296 296 297 297 298 298 298 298 299 299 300 300 302 302 302 303 303 304 305 305 304 303 303 304 305 307 308 308 308 310 312 312 312 313
235 237 239 242 245 248 251 253 255 258 260 262 263 265 267 268 270 271 272 273 274 275 276 277 278 278 279 279 280 280 281 281 282 283 284 284 285 286 286 287 288 289 290 290 291 291 292 292 293 294 295 296 296 297 297 298 298 299 299 299 299 300 300 300 301 302 302 302 302 303 304 304 305 304 302 303 304 306 307 307 307 307 309 310 310 310 311
238 240 242 245 247 250 252 255 257 259 261 263 264 265 267 269 270 272 273 273 274 275 276 277 277 278 278 279 280 280 281 282 283 284 285 286 287 287 288 288 289 290 290 291 291 291 292 292 293 293 294 295 296 297 297 298 298 299 299 299 300 300 300 300 301 302 302 301 301 302 303 304 304 302 301 302 304 305 305 305 305 306 308 308 308 308 309
240 242 244 247 249 251 253 255 258 260 262 263 265 266 267 269 270 271 272 273 274 275 275 276 277 278 279 279 280 281 282 283 284 285 286 286 287 288 289 289 290 291 291 292 292 292 293 294 294 294 295 295 296 296 297 297 297 298 298 298 299 299 300 300 300 301 301 300 300 301 303 304 303 301 300 301 303 303 303 303 304 305 306 306 306 307 307
241 243 245 247 249 252 254 255 257 259 261 263 264 266 267 268 269 270 271 272 273 274 275 276 277 278 279 280 281 282 283 284 284 285 286 287 288 288 289 290 290 291 292 293 293 294 294 295 295 296 296 296 296 297 297 297 297 297 298 298 298 299 299 299 300 300 300 300 300 301 302 302 302 301 300 301 301 301 301 302 303 304 304 304 305 305 305
242 243 245 247 249 251 253 255 257 259 261 263 264 266 267 268 270 271 271 273 274 275 276 278 279 279 280 281 282 283 284 284 285 286 287 288 289 289 290 291 291 292 292 293 294 294 295 295 296 296 296 297 297 298 298 298 299 299 299 299 299 299 300 300 300 300 300 300 300 300 301 302 302 301 300 300 300 300 301 302 303 303 303 303 304 304 304
245 246 248 250 252 254 256 258 259 261 263 264 266 267 269 270 271 273 274 275 276 277 278 279 280 281 282 283 284 284 285 286 287 288 288 289 290 290 291 291 292 293 293 293 294 295 295 296 296 297 297 297 298 298 298 299 299 299 299 299 299 299 299 299 299 299 300 300 300 300 301 302 301 300 299 299 299 300 301 302 303 302 302 303 304 304 304
250 252 253 255 257 259 260 262 263 264 266 267 268 270 271 272 274 275 276 277 279 280 281 281 282 283 284 285 285 286 287 287 288 289 289 290 290 291 291 292 293 293 293 294 294 295 295 296 296 296 297 297 297 298 298 298 298 298 298 298 298 298 298 298 299 299 299 299 300 301 301 301 300 298 298 298 299 300 302 303 302 301 301 303 304 304 303
257 258 260 261 262 264 265 266 267 268 269 270 272 273 275 276 277 278 279 280 281 282 283 283 284 285 285 286 286 287 288 288 289 289 290 291 291 292 292 293 293 293 294 294 294 295 295 295 296 297 297 297 298 298 298 299 299 298 298 298 298 298 298 298 298 298 298 298 299 300 300 301 299 297 297 297 299 300 301 301 300 299 300 301 302 301 300
265 266 266 267 268 268 269 270 271 272 273 275 276 277 278 279 279 280 281 282 283 283 284 284 285 286 286 287 288 288 289 290 290 291 291 292 292 293 293 294 294 294 295 295 296 296 297 297 298 298 299 299 299 299 299 299 298 298 298 298 298 298 298 298 298 298 298 299 299 300 300 300 298 296 296 297 299 299 299 299 299 299 299 300 300 299 299
272 272 272 273 273 274 275 276 277 278 278 279 280 280 281 282 282 283 284 284 285 286 286 287 287 288 289 289 290 290 291 292 293 293 294 294 295 295 295 296 296 297 297 298 298 299 299 300 300 300 300 300 300 300 300 300 300 299 299 299 300 300 300 300 300 300 300 300 301 301 301 300 297 296 296 297 298 298 297 299 300 301 300 299 299 299 299
276 277 278 279 280 280 281 282 282 283 284 284 284 285 285 286 286 287 287 288 288 289 289 289 290 290 291 291 292 292 293 294 295 295 296 296 296 297 297 297 298 298 299 299 299 300 300 300 301 301 302 302 302 303 303 303 303 303 302 302 303 302 302 302 302 303 303 302 303 304 303 302 300 300 300 300 299 299 300 301 302 301 300 299 299 298 298
279 280 281 282 282 283 284 285 285 286 286 287 287 287 287 288 288 289 289 289 290 290 290 290 291 291 292 292 293 294 294 295 296 296 296 296 296 296 296 297 297 298 298 299 299 300 301 301 302 303 303 304 304 305 305 305 305 305 305 305 305 304 305 305 305 305 305 305 306 306 305 303 303 304 303 302 301 301 302 304 304 302 300 299 299 299 298
281 281 282 282 283 283 284 284 285 285 286 286 287 287 287 288 288 288 289 289 290 290 290 291 291 292 292 293 294 294 294 295 295 295 296 296 295 296 296 296 297 297 298 299 300 300 301 302 303 303 304 305 306 307 307 307 307 306 306 306 306 306 307 307 307 307 307 308 308 307 305 305 306 306 305 304 304 303 304 304 303 301 300 300 300 300 300
280 281 282 282 283 283 284 284 285 285 286 286 286 287 287 288 288 289 289 289 290 291 291 291 292 292 292 293 293 294 294 295 295 295 295 295 295 296 296 297 297 297 298 299 300 300 301 302 303 304 305 306 307 307 307 307 306 306 307 307 308 308 308 308 308 308 308 309 308 307 307 308 308 306 305 305 305 305 305 305 303 302 301 302 302 302 302
279 280 281 282 283 284 284 285 285 286 286 287 287 287 287 288 288 289 289 290 290 291 291 291 292 292 292 293 293 294 294 295 296 296 296 296 296 296 296 297 297 298 299 299 300 301 302 303 304 306 307 307 307 306 305 305 304 304 305 306 307 307 308 308 308 309 309 309 308 308 309 310 309 308 307 308 308 307 307 306 305 304 303 303 304 303 303
280 281 282 283 284 284 285 286 286 286 286 287 287 287 288 288 289 290 290 291 291 291 292 292 292 293 293 293 294 295 296 297 297 297 297 297 297 297 298 299 300 300 301 301 302 302 304 305 307 307 307 307 305 304 303 303 302 302 303 303 304 305 306 307 308 308 308 308 308 308 310 310 309 309 309 309 310 309 308 307 307 306 306 305 305 305 304
281 282 283 283 284 284 285 285 286 286 287 287 287 288 288 289 290 291 291 292 292 293 293 293 293 294 294 295 296 298 299 299 299 298 298 298 299 299 300 301 302 302 302 302 303 304 306 307 308 307 306 305 303 302 301 301 300 300 301 301 302 303 303 304 305 306 306 307 307 308 309 309 308 309 309 310 310 310 310 309 309 308 308 307 307 306 306
282 283 283 284 284 285 286 286 287 288 288 289 289 290 291 291 292 292 293 293 293 294 294 294 295 296 296 297 299 300 300 299 299 299 299 299 300 300 301 302 302 302 302 303 304 306 307 308 308 307 306 304 302 301 300 299 299 299 299 300 300 300 300 301 303 304 304 305 305 306 308 308 308 309 309 310 310 311 311 310 310 310 310 309 309 308 308
283 284 285 285 286 287 288 289 290 291 291 292 293 293 294 295 295 295 295 295 295 295 295 296 296 296 297 298 299 299 299 298 299 299 299 300 301 301 302 302 303 302 303 304 306 308 309 309 309 308 306 303 301 300 299 299 298 298 299 299 299 298 299 300 301 303 304 305 305 306 308 308 309 309 310 310 311 312 312 312 312 312 311 311 310 310 309
285 286 287 288 289 290 291 292 293 294 294 295 295 296 296 296 296 296 296 296 296 296 296 297 297 298 299 299 299 299 299 299 299 300 300 300 301 301 302 303 303 303 304 306 308 309 311 311 310 308 306 304 302 301 300 299 299 299 299 300 300 299 300 300 301 303 304 304 305 306 308 308 309 310 310 311 312 312 312 312 312 312 312 311 310 310 309
288 289 290 291 292 293 294 294 295 296 296 296 296 296 297 297 297 297 297 297 297 298 298 298 298 299 299 299 300 300 301 301 300 300 300 301 301 302 303 303 303 304 306 308 310 311 312 312 311 309 307 306 305 304 302 302 301 301 301 301 301 300 301 301 302 303 304 305 305 306 308 309 309 310 310 311 312 312 313 313 313 313 313 313 312 311 311
291 291 292 293 294 294 295 295 295 295 296 296 296 297 297 297 297 298 298 298 298 299 299 299 299 299 299 300 301 302 302 302 301 301 301 302 303 304 304 304 305 306 308 310 312 313 313 313 313 311 310 309 308 307 305 304 304 305 305 304 302 302 302 303 303 305 306 306 307 307 308 309 309 309 310 311 312 313 313 313 314 314 314 314 314 314 313
292 293 293 294 294 294 294 294 294 295 295 296 297 297 298 298 298 298 298 298 298 299 299 299 299 300 301 302 303 303 302 302 302 303 304 305 305 305 305 306 307 309 311 312 313 314 314 315 315 314 313 311 311 310 309 307 307 310 310 309 306 305 306 306 306 306 306 307 307 307 307 308 308 308 309 309 310 311 312 312 313 313 313 314 314 314 314
292 293 293 293 293 293 293 294 295 296 296 297 297 298 298 298 298 298 298 298 298 299 299 300 301 302 302 303 302 302 302 303 304 305 306 305 305 305 307 308 309 310 312 313 315 315 316 316 316 316 316 314 313 312 311 309 310 313 315 313 311 310 310 310 309 308 307 307 307 307 307 307 307 307 308 308 309 309 310 310 310 311 312 312 313 313 314
291 291 292 292 293 294 295 296 296 296 297 297 297 297 297 297 297 298 298 298 299 299 300 301 302 302 302 302 302 303 304 305 306 305 305 305 306 307 308 309 310 312 314 315 316 317 317 317 318 319 318 316 314 313 312 310 311 315 316 315 313 313 313 313 312 311 309 309 308 308 307 307 306 307 306 306 306 307 307 307 308 309 310 310 311 312 312
291 292 293 294 294 295 295 295 295 296 296 296 297 297 297 298 298 298 299 299 300 300 301 301 302 302 302 303 304 305 305 305 305 305 305 306 308 309 310 311 312 314 316 317 318 318 318 318 320 320 318 316 315 313 312 312 314 316 317 316 315 314 315 315 314 313 312 311 310 309 308 307 306 306 305 305 304 304 304 305 305 306 307 308 309 309 310
292 293 294 294 295 295 295 296 297 297 298 299 299 299 299 299 299 299 299 300 300 301 301 302 302 302 303 304 304 305 305 305 306 307 308 308 309 310 311 312 314 316 317 319 319 318 318 319 320 319 317 316 314 313 312 313 315 317 317 316 315 314 315 315 315 314 313 312 311 309 308 307 306 305 304 304 303 302 302 303 303 304 305 305 306 307 308
294 295 296 297 298 298 299 299 300 300 301 301 301 301 301 301 301 301 301 301 301 302 302 303 303 304 304 305 305 305 306 307 307 308 308 309 309 310 312 313 315 317 319 319 319 318 318 318 319 318 317 316 314 313 312 314 316 316 316 315 315 314 315 315 314 313 312 310 309 308 307 306 305 305 304 303 302 301 301 301 302 303 303 304 304 304 305
299 300 300 300 300 301 301 301 302 303 303 303 304 304 304 304 304 304 305 305 305 306 306 306 306 306 306 307 307 308 308 309 309 309 309 310 310 311 313 315 318 319 320 319 318 317 317 318 317 317 317 316 315 314 314 316 317 317 316 316 315 314 313 313 311 310 309 307 306 306 305 305 304 304 303 302 301 300 300 300 300 301 302 302 303 303 303
302 302 302 302 302 303 304 304 305 305 305 306 307 307 307 307 307 308 308 308 309 309 309 309 309 310 310 310 310 310 310 310 310 310 311 312 313 315 316 318 319 319 320 319 317 316 317 317 317 317 317 317 316 316 318 319 318 317 317 316 314 313 312 310 308 306 305 305 304 304 304 303 303 303 302 301 300 300 299 299 300 300 300 301 302 302 303
303 303 304 304 305 305 306 306 306 307 307 308 308 308 308 309 309 310 310 311 311 311 311 312 312 312 313 313 313 313 312 312 312 312 313 314 316 317 318 318 319 319 320 319 317 316 317 318 318 318 319 318 317 318 320 319 317 317 316 314 313 311 309 307 305 304 304 303 303 303 302 302 301 301 300 300 299 299 298 298 299 299 300 301 302 303 303
304 305 305 306 306 306 307 307 307 307 308 308 309 309 309 310 310 311 311 312 312 313 314 315 315 315 316 316 315 314 313 313 314 315 316 317 318 318 318 318 318 319 320 319 317 317 319 320 320 320 319 318 318 318 318 317 316 316 314 312 310 309 307 305 305 304 303 303 302 302 301 300 300 299 299 298 298 298 298 298 299 299 299 300 302 303 304
305 305 306 306 306 307 307 307 307 307 308 308 309 309 309 310 311 311 312 313 314 315 316 316 317 317 316 316 315 314 314 315 317 318 319 319 319 319 319 318 318 319 321 321 320 321 322 322 322 321 318 317 317 317 316 315 314 313 311 309 308 307 306 306 306 305 305 305 304 304 303 303 302 301 300 300 299 299 299 299 300 300 300 301 302 303 304
305 306 306 306 307 307 307 307 307 308 308 309 309 310 310 311 312 313 314 315 316 317 317 318 318 317 316 316 316 316 317 318 319 320 320 319 319 320 320 320 321 323 325 325 325 325 324 324 323 321 317 316 316 316 314 312 311 309 308 308 307 307 308 308 308 308 308 307 307 307 306 306 305 304 304 303 302 302 301 301 301 300 301 302 302 303 304
305 306 307 308 308 309 309 310 310 311 311 311 311 311 312 313 314 315 316 317 318 318 318 318 318 317 317 317 318 319 319 320 320 321 321 320 320 321 323 323 325 327 329 329 328 327 326 325 323 321 318 317 316 315 312 311 310 309 309 309 309 309 310 310 310 310 310 310 309 308 308 307 306 305 305 304 304 303 303 303 302 302 302 301 301 301 301
306 307 308 309 310 310 311 312 313 313 314 313 313 313 314 314 316 317 318 319 319 319 319 319 319 319 319 320 321 321 321 321 321 321 322 322 322 323 325 326 328 330 331 330 329 328 327 325 322 320 318 317 316 314 313 312 312 311 311 311 311 312 312 312 312 312 312 311 310 308 307 306 306 305 305 304 304 303 303 303 303 302 300 299 298 297 296
308 309 310 311 311 312 313 314 314 315 315 315 315 316 316 316 317 318 319 320 320 320 320 320 321 321 321 321 321 321 321 321 321 321 322 322 323 325 326 328 330 332 332 330 328 327 326 324 321 319 318 317 316 315 314 314 313 313 313 313 314 315 315 315 314 314 313 311 310 308 308 307 306 306 306 305 304 303 303 302 301 300 299 297 296 295 294
311 312 312 313 313 314 314 315 315 316 316 317 317 318 318 318 318 319 320 321 321 321 322 322 322 322 322 321 321 321 320 320 320 321 321 322 325 326 328 330 332 333 331 329 327 326 324 322 320 318 318 318 317 316 316 316 315 315 316 316 317 317 317 316 315 314 312 311 310 309 309 308 307 307 306 306 305 304 304 303 301 300 299 299 299 299 298
314 314 315 315 315 315 316 316 316 316 317 318 318 319 319 320 320 321 322 322 322 322 322 321 322 322 321 320 320 320 319 319 320 321 321 323 326 328 328 331 333 333 330 327 325 323 322 321 320 319 319 319 318 318 317 317 317 317 318 319 319 318 317 316 315 314 313 312 311 310 309 309 308 307 307 307 307 307 306 305 303 302 301 301 302 301 301
316 316 317 317 317 317 317 317 317 317 318 319 319 320 320 320 321 321 322 322 321 321 321 321 321 321 320 320 320 319 319 319 320 321 322 324 327 328 329 331 333 331 327 325 323 322 321 321 322 321 321 320 319 318 318 318 319 319 320 320 319 318 317 316 316 315 314 313 312 311 310 310 309 308 308 308 308 308 307 306 304 302 302 302 302 301 300
316 317 318 318 319 319 319 318 318 318 319 319 319 320 320 320 321 321 321 321 320 319 320 320 320 320 319 319 318 318 318 319 320 321 324 326 327 327 329 332 331 328 325 323 322 322 323 323 323 323 321 320 319 319 319 320 320 320 320 319 319 319 318 317 317 317 315 314 313 312 311 311 310 309 309 309 309 309 307 304 302 301 300 300 300 300 300
316 317 318 318 319 319 319 319 318 318 319 319 319 319 320 320 320 320 320 319 318 318 319 319 319 319 318 317 317 318 318 318 320 323 325 326 326 327 329 331 329 326 324 323 322 323 324 324 323 322 321 320 320 320 321 321 321 321 320 320 320 320 319 319 318 317 316 315 314 313 313 312 311 310 310 310 310 309 306 303 301 300 299 299 300 301 301
316 316 317 318 318 318 319 319 319 319 319 319 319 319 319 319 319 319 318 317 317 317 318 318 318 317 317 316 317 317 317 318 321 324 325 325 326 327 328 328 326 324 323 323 324 325 325 324 323 322 321 320 320 321 321 322 322 321 321 321 321 320 320 320 319 318 317 316 316 315 314 313 312 311 311 311 310 307 305 303 301 300 300 300 300 300 300
315 316 316 317 317 317 318 318 319 320 320 319 319 319 319 319 318 317 317 316 317 317 317 317 317 316 316 316 317 317 317 319 322 324 325 325 326 327 327 326 324 323 323 324 325 325 324 323 322 321 320 321 321 322 323 323 322 322 321 321 321 321 321 320 320 320 319 319 318 317 316 315 314 313 313 312 310 308 307 305 302 301 300 299 298 299 299
315 315 316 316 316 317 317 318 319 320 320 319 319 319 319 318 317 316 316 316 316 317 316 316 315 315 315 316 316 317 318 320 322 323 324 326 327 326 324 323 323 323 324 325 325 325 323 322 322 321 321 322 323 324 323 323 322 322 321 321 322 322 322 322 322 321 321 320 319 319 318 316 316 315 316 315 314 312 310 307 303 301 300 299 299 299 300
315 315 315 315 315 316 316 317 318 319 319 319 319 319 318 317 316 316 316 316 316 316 315 315 315 315 316 316 316 317 318 320 322 323 324 326 325 323 322 322 323 323 325 325 325 323 323 322 322 322 323 324 324 324 323 323 322 322 322 322 322 322 323 323 323 322 321 321 321 320 319 319 319 319 319 319 317 315 312 308 305 303 303 303 303 303 302